Time,TemperatureF,DewpointF,PressureIn,WindDirection,WindDirectionDegrees,WindSpeedMPH,WindSpeedGustMPH,Humidity,HourlyPrecipIn,Conditions,Clouds,dailyrainin,SoftwareType,DateUTC
2015-07-04 00:04:00,77.8,72.2,30.10,ESE,108,0.0,0.0,83,0.00,,---,0.00,VWS V14.01,2015-07-04 04:04:00,
2015-07-04 00:09:00,77.7,72.1,30.10,ESE,108,0.0,0.0,83,0.00,,---,0.00,VWS V14.01,2015-07-04 04:09:00,
2015-07-04 00:14:00,77.6,72.0,30.09,ESE,108,0.0,0.0,83,0.00,,---,0.00,VWS V14.01,2015-07-04 04:14:00,
2015-07-04 00:19:00,77.5,72.3,30.09,East,98,0.0,1.0,84,0.00,,---,0.00,VWS V14.01,2015-07-04 04:19:00,
2015-07-04 00:25:00,77.5,72.3,30.09,East,101,0.0,0.0,84,0.00,,---,0.00,VWS V14.01,2015-07-04 04:25:00,
2015-07-04 00:30:00,77.4,72.2,30.09,West,269,0.0,0.0,84,0.00,,---,0.00,VWS V14.01,2015-07-04 04:30:00,
2015-07-04 00:35:00,77.4,72.5,30.08,NNE,32,1.0,2.0,85,0.00,,---,0.00,VWS V14.01,2015-07-04 04:35:00,
2015-07-04 00:40:00,77.5,72.6,30.08,ENE,75,0.0,0.0,85,0.00,,---,0.00,VWS V14.01,2015-07-04 04:40:00,
2015-07-04 00:45:00,77.5,72.3,30.08,ENE,75,0.0,0.0,84,0.00,,---,0.00,VWS V14.01,2015-07-04 04:45:00,
2015-07-04 00:50:00,77.5,72.3,30.08,NE,39,0.0,3.0,84,0.00,,---,0.00,VWS V14.01,2015-07-04 04:50:00,
2015-07-04 00:55:00,77.5,72.3,30.08,ESE,119,0.0,0.0,84,0.00,,---,0.00,VWS V14.01,2015-07-04 04:55:00,
2015-07-04 01:00:00,77.4,72.2,30.08,ESE,118,0.0,0.0,84,0.00,,---,0.00,VWS V14.01,2015-07-04 05:00:00,
2015-07-04 01:05:00,77.3,72.1,30.08,SE,134,0.0,0.0,84,0.00,,---,0.00,VWS V14.01,2015-07-04 05:05:00,
2015-07-04 01:10:00,77.1,72.2,30.08,SE,134,0.0,0.0,85,0.00,,---,0.00,VWS V14.01,2015-07-04 05:10:00,
2015-07-04 01:15:00,77.0,72.2,30.08,SE,132,0.0,0.0,85,0.00,,---,0.00,VWS V14.01,2015-07-04 05:15:00,
2015-07-04 01:20:00,77.0,72.2,30.08,SE,132,0.0,0.0,85,0.00,,---,0.00,VWS V14.01,2015-07-04 05:20:00,
2015-07-04 01:25:00,76.8,71.9,30.07,SE,132,0.0,0.0,85,0.00,,---,0.00,VWS V14.01,2015-07-04 05:25:00,
2015-07-04 01:30:00,76.7,72.2,30.07,SE,133,0.0,0.0,86,0.00,,---,0.00,VWS V14.01,2015-07-04 05:30:00,
2015-07-04 01:35:00,76.6,72.4,30.07,SE,133,0.0,0.0,87,0.00,,---,0.00,VWS V14.01,2015-07-04 05:35:00,
2015-07-04 01:40:00,76.6,72.4,30.07,SE,133,0.0,0.0,87,0.00,,---,0.00,VWS V14.01,2015-07-04 05:40:00,
2015-07-04 01:45:00,76.6,72.8,30.07,SE,132,0.0,0.0,88,0.00,,---,0.00,VWS V14.01,2015-07-04 05:45:00,
2015-07-04 01:50:00,76.8,73.0,30.07,SE,131,0.0,0.0,88,0.00,,---,0.00,VWS V14.01,2015-07-04 05:50:00,
2015-07-04 01:56:00,77.1,72.9,30.08,ENE,70,0.0,0.0,87,0.00,,---,0.00,VWS V14.01,2015-07-04 05:56:00,
2015-07-04 02:01:00,77.5,73.0,30.08,East,85,0.0,0.0,86,0.00,,---,0.00,VWS V14.01,2015-07-04 06:01:00,
2015-07-04 02:06:00,77.5,73.0,30.08,ENE,65,0.0,1.0,86,0.00,,---,0.00,VWS V14.01,2015-07-04 06:06:00,
2015-07-04 02:11:00,77.5,73.0,30.08,ESE,107,0.0,0.0,86,0.00,,---,0.00,VWS V14.01,2015-07-04 06:11:00,
2015-07-04 02:16:00,77.5,73.0,30.07,ESE,108,0.0,0.0,86,0.00,,---,0.00,VWS V14.01,2015-07-04 06:16:00,
2015-07-04 02:21:00,77.3,72.4,30.07,ESE,108,0.0,0.0,85,0.00,,---,0.00,VWS V14.01,2015-07-04 06:21:00,
2015-07-04 02:26:00,77.2,72.7,30.07,ESE,108,0.0,0.0,86,0.00,,---,0.00,VWS V14.01,2015-07-04 06:26:00,
2015-07-04 02:31:00,77.1,72.6,30.07,ESE,107,0.0,0.0,86,0.00,,---,0.00,VWS V14.01,2015-07-04 06:31:00,
2015-07-04 02:37:00,77.1,72.6,30.07,ESE,111,0.0,0.0,86,0.00,,---,0.00,VWS V14.01,2015-07-04 06:37:00,
2015-07-04 02:42:00,77.1,72.9,30.06,ESE,110,0.0,0.0,87,0.00,,---,0.00,VWS V14.01,2015-07-04 06:42:00,
2015-07-04 02:47:00,77.3,73.1,30.06,East,82,0.0,0.0,87,0.00,,---,0.00,VWS V14.01,2015-07-04 06:47:00,
2015-07-04 02:52:00,77.4,73.2,30.06,ENE,76,0.0,0.0,87,0.00,,---,0.00,VWS V14.01,2015-07-04 06:52:00,
2015-07-04 02:57:00,77.4,73.2,30.06,East,80,0.0,0.0,87,0.00,,---,0.00,VWS V14.01,2015-07-04 06:57:00,
2015-07-04 03:02:00,77.4,73.2,30.06,East,84,0.0,0.0,87,0.00,,---,0.00,VWS V14.01,2015-07-04 07:02:00,
2015-07-04 03:08:00,77.4,73.2,30.06,ESE,115,0.0,0.0,87,0.00,,---,0.00,VWS V14.01,2015-07-04 07:08:00,
2015-07-04 03:13:00,77.4,72.9,30.06,East,86,0.0,0.0,86,0.00,,---,0.00,VWS V14.01,2015-07-04 07:13:00,
2015-07-04 03:18:00,77.3,72.8,30.06,East,81,0.0,0.0,86,0.00,,---,0.00,VWS V14.01,2015-07-04 07:18:00,
2015-07-04 03:23:00,77.3,72.8,30.06,ENE,61,0.0,0.0,86,0.00,,---,0.00,VWS V14.01,2015-07-04 07:23:00,
2015-07-04 03:28:00,77.2,72.7,30.06,North,9,0.0,1.0,86,0.00,,---,0.00,VWS V14.01,2015-07-04 07:28:00,
2015-07-04 03:33:00,77.1,72.6,30.06,North,9,0.0,0.0,86,0.00,,---,0.00,VWS V14.01,2015-07-04 07:33:00,
2015-07-04 03:38:00,76.9,72.4,30.05,North,9,0.0,0.0,86,0.00,,---,0.00,VWS V14.01,2015-07-04 07:38:00,
2015-07-04 03:43:00,76.7,72.2,30.06,North,9,0.0,0.0,86,0.00,,---,0.00,VWS V14.01,2015-07-04 07:43:00,
2015-07-04 03:48:00,76.4,72.2,30.05,North,9,0.0,0.0,87,0.00,,---,0.00,VWS V14.01,2015-07-04 07:48:00,
2015-07-04 03:53:00,76.2,72.1,30.05,NNE,30,0.0,0.0,87,0.00,,---,0.00,VWS V14.01,2015-07-04 07:53:00,
2015-07-04 03:58:00,76.0,71.9,30.05,NNE,30,0.0,0.0,87,0.00,,---,0.00,VWS V14.01,2015-07-04 07:58:00,
2015-07-04 04:03:00,75.8,72.0,30.05,NNE,30,0.0,0.0,88,0.00,,---,0.00,VWS V14.01,2015-07-04 08:03:00,
2015-07-04 04:08:00,75.6,71.8,30.06,NNE,30,0.0,0.0,88,0.00,,---,0.00,VWS V14.01,2015-07-04 08:08:00,
2015-07-04 04:13:00,75.4,71.9,30.05,NNE,30,0.0,0.0,89,0.00,,---,0.00,VWS V14.01,2015-07-04 08:13:00,
2015-07-04 04:18:00,75.3,71.8,30.05,NNE,30,0.0,0.0,89,0.00,,---,0.00,VWS V14.01,2015-07-04 08:18:00,
2015-07-04 04:23:00,75.1,71.6,30.05,NNE,30,0.0,0.0,89,0.00,,---,0.00,VWS V14.01,2015-07-04 08:23:00,
2015-07-04 04:28:00,75.0,71.9,30.06,NNE,30,0.0,0.0,90,0.00,,---,0.00,VWS V14.01,2015-07-04 08:28:00,
2015-07-04 04:33:00,75.0,71.9,30.06,NNE,29,0.0,0.0,90,0.00,,---,0.00,VWS V14.01,2015-07-04 08:33:00,
2015-07-04 04:38:00,75.1,72.0,30.06,NNE,30,0.0,0.0,90,0.00,,---,0.00,VWS V14.01,2015-07-04 08:38:00,
2015-07-04 04:40:00,75.1,72.0,30.06,NNE,30,0.0,0.0,90,0.00,,---,0.00,VWS V14.01,2015-07-04 08:40:00,
2015-07-04 04:48:00,75.3,72.2,30.06,East,96,0.0,0.0,90,0.00,,---,0.00,VWS V14.01,2015-07-04 08:48:00,
2015-07-04 04:54:00,75.4,71.9,30.06,East,84,0.0,0.0,89,0.00,,---,0.00,VWS V14.01,2015-07-04 08:54:00,
2015-07-04 04:58:00,75.6,72.1,30.06,NE,54,0.0,0.0,89,0.00,,---,0.00,VWS V14.01,2015-07-04 08:58:00,
2015-07-04 05:03:00,75.5,72.0,30.06,ENE,58,0.0,0.0,89,0.00,,---,0.00,VWS V14.01,2015-07-04 09:03:00,
2015-07-04 05:09:00,75.4,71.9,30.06,East,82,0.0,0.0,89,0.00,,---,0.00,VWS V14.01,2015-07-04 09:09:00,
2015-07-04 05:15:00,75.4,71.9,30.06,East,91,0.0,0.0,89,0.00,,---,0.00,VWS V14.01,2015-07-04 09:15:00,
2015-07-04 05:20:00,75.3,71.8,30.06,ESE,117,0.0,0.0,89,0.00,,---,0.00,VWS V14.01,2015-07-04 09:20:00,
2015-07-04 05:25:00,75.2,71.7,30.06,ESE,117,0.0,0.0,89,0.00,,---,0.00,VWS V14.01,2015-07-04 09:25:00,
2015-07-04 05:30:00,75.1,71.6,30.06,ESE,117,0.0,0.0,89,0.00,,---,0.00,VWS V14.01,2015-07-04 09:30:00,
2015-07-04 05:35:00,74.9,71.4,30.06,ESE,117,0.0,0.0,89,0.00,,---,0.00,VWS V14.01,2015-07-04 09:35:00,
2015-07-04 05:40:00,74.7,71.6,30.06,ESE,117,0.0,0.0,90,0.00,,---,0.00,VWS V14.01,2015-07-04 09:40:00,
2015-07-04 05:45:00,74.6,71.5,30.07,ESE,117,0.0,0.0,90,0.00,,---,0.00,VWS V14.01,2015-07-04 09:45:00,
2015-07-04 05:50:00,74.3,71.2,30.06,ESE,117,0.0,0.0,90,0.00,,---,0.00,VWS V14.01,2015-07-04 09:50:00,
2015-07-04 05:55:00,74.0,70.9,30.07,ESE,117,0.0,0.0,90,0.00,,---,0.00,VWS V14.01,2015-07-04 09:55:00,
2015-07-04 06:01:00,73.8,71.0,30.07,ESE,117,0.0,0.0,91,0.00,,---,0.00,VWS V14.01,2015-07-04 10:01:00,
2015-07-04 06:06:00,73.7,70.9,30.07,ESE,117,0.0,0.0,91,0.00,,---,0.00,VWS V14.01,2015-07-04 10:06:00,
2015-07-04 06:11:00,73.6,71.1,30.07,ESE,117,0.0,0.0,92,0.00,,---,0.00,VWS V14.01,2015-07-04 10:11:00,
2015-07-04 06:16:00,73.6,71.1,30.07,ESE,117,0.0,0.0,92,0.00,,---,0.00,VWS V14.01,2015-07-04 10:16:00,
2015-07-04 06:21:00,73.5,71.0,30.08,ESE,117,0.0,0.0,92,0.00,,---,0.00,VWS V14.01,2015-07-04 10:21:00,
2015-07-04 06:26:00,73.5,71.0,30.08,ESE,117,0.0,0.0,92,0.00,,---,0.00,VWS V14.01,2015-07-04 10:26:00,
2015-07-04 06:30:00,73.4,70.9,30.08,ESE,117,0.0,0.0,92,0.00,,---,0.00,VWS V14.01,2015-07-04 10:30:00,
2015-07-04 06:31:00,73.4,70.9,30.08,ESE,117,0.0,0.0,92,0.00,,---,0.00,VWS V14.01,2015-07-04 10:31:00,
2015-07-04 06:36:00,73.4,70.9,30.08,ESE,117,0.0,0.0,92,0.00,,---,0.00,VWS V14.01,2015-07-04 10:36:00,
2015-07-04 06:41:00,73.3,71.2,30.09,ESE,117,0.0,0.0,93,0.00,,---,0.00,VWS V14.01,2015-07-04 10:41:00,
2015-07-04 06:46:00,73.4,71.3,30.09,ESE,117,0.0,0.0,93,0.00,,---,0.00,VWS V14.01,2015-07-04 10:46:00,
2015-07-04 06:51:00,73.4,71.3,30.09,ESE,117,0.0,0.0,93,0.00,,---,0.00,VWS V14.01,2015-07-04 10:51:00,
2015-07-04 06:56:00,73.5,71.4,30.09,ESE,117,0.0,0.0,93,0.00,,---,0.00,VWS V14.01,2015-07-04 10:56:00,
2015-07-04 07:01:00,73.7,71.6,30.09,ESE,117,0.0,0.0,93,0.00,,---,0.00,VWS V14.01,2015-07-04 11:01:00,
2015-07-04 07:06:00,74.0,72.2,30.09,ESE,117,0.0,0.0,94,0.00,,---,0.00,VWS V14.01,2015-07-04 11:06:00,
2015-07-04 07:11:00,74.1,71.9,30.08,ESE,117,0.0,0.0,93,0.00,,---,0.00,VWS V14.01,2015-07-04 11:11:00,
2015-07-04 07:17:00,74.5,72.3,30.08,ESE,117,0.0,0.0,93,0.00,,---,0.00,VWS V14.01,2015-07-04 11:17:00,
2015-07-04 07:20:00,74.8,72.6,30.08,ESE,117,0.0,0.0,93,0.00,,---,0.00,VWS V14.01,2015-07-04 11:20:00,
2015-07-04 07:21:00,74.9,72.4,30.08,ESE,118,0.0,0.0,92,0.00,,---,0.00,VWS V14.01,2015-07-04 11:21:00,
2015-07-04 07:26:00,75.4,72.9,30.09,ESE,117,0.0,0.0,92,0.00,,---,0.00,VWS V14.01,2015-07-04 11:26:00,
2015-07-04 07:31:00,75.9,73.1,30.09,ESE,113,0.0,0.0,91,0.00,,---,0.00,VWS V14.01,2015-07-04 11:31:00,
2015-07-04 07:36:00,76.4,73.2,30.09,East,99,0.0,0.0,90,0.00,,---,0.00,VWS V14.01,2015-07-04 11:36:00,
2015-07-04 07:41:00,77.1,73.6,30.10,East,98,0.0,1.0,89,0.00,,---,0.00,VWS V14.01,2015-07-04 11:41:00,
2015-07-04 07:46:00,78.3,74.5,30.10,East,84,0.0,0.0,88,0.00,,---,0.00,VWS V14.01,2015-07-04 11:46:00,
2015-07-04 07:51:00,79.1,74.9,30.09,NE,49,0.0,0.0,87,0.00,,---,0.00,VWS V14.01,2015-07-04 11:51:00,
2015-07-04 07:56:00,79.8,74.9,30.09,East,96,0.0,0.0,85,0.00,,---,0.00,VWS V14.01,2015-07-04 11:56:00,
2015-07-04 08:02:00,80.1,74.5,30.09,ENE,64,0.0,0.0,83,0.00,,---,0.00,VWS V14.01,2015-07-04 12:02:00,